Bemidji, MN

5:34 PM CDT on September 24, 2017 (GMT -0500)
Bemidji-Beltrami County

Weather History for KBJI - November, 2014

Change the Weather History Date:

Friday, November 28, 2014

  Actual Average Record
Temperature  
Mean Temperature 11 °F -  
Max Temperature 16 °F 21 °F 45 °F (1962)
Min Temperature 6 °F 6 °F -23 °F (1985)
Degree Days  
Heating Degree Days 54    
Moisture  
Dew Point 6 °F    
Average Humidity 81    
Maximum Humidity 87    
Minimum Humidity 72    
Precipitation  
Precipitation 0.00 in - - ()
Sea Level Pressure  
Sea Level Pressure 29.86 in    
Wind  
Wind Speed 8 mph (ESE)    
Max Wind Speed 16 mph    
Max Gust Speed 18 mph    
Visibility 8 miles    
Events Snow    
Averages and records for this station are not official NWS values.
T = Trace of Precipitation, MM = Missing Value Source: NWS Daily Summary

Daily Weather History Graph

Daily Weather History Graph

Search for Another Location

Airport or City:

Trip Planner

Search our weather history database for the weather conditions in past years. The results will help you decide how hot, cold, wet, or windy it might be!

Date:

Astronomy

Nov. 28, 2014 Rise Set
Actual Time 7:42 AM CST 4:32 PM CST
Civil Twilight 7:08 AM CST 5:07 PM CST
Nautical Twilight 6:29 AM CST 5:45 PM CST
Astronomical Twilight 5:52 AM CST 6:22 PM CST
Moon 12:22 PM CST (11/28) 11:38 PM CST (11/28)
Length of Visible Light 9h 59m
Length of Day
8h 49m
Waxing Crescent, 42% of the Moon is Illuminated
Nov 28
Waxing Crescent
Nov 29
First Quarter
Dec 6
Full
Dec 14
Last Quarter
Dec 21
New

Hourly Weather History & Observations

Time (CST) Temp. Windchill Dew Point Humidity Pressure Visibility Wind Dir Wind Speed Gust Speed Precip Events Conditions
12:13 AM 6.8 °F -6.9 °F -0.4 °F 72% 30.10 in 7.0 mi SSE 9.2 mph - N/A Snow Light Snow
12:32 AM 6.6 °F -5.0 °F 1.2 °F 79% 30.09 in 7.0 mi SSE 6.9 mph - N/A Snow Light Snow
12:52 AM 6.6 °F -3.7 °F 1.2 °F 79% 30.08 in 10.0 mi SE 5.8 mph - N/A   Mostly Cloudy
1:12 AM 6.6 °F -6.1 °F 1.4 °F 79% 30.07 in 10.0 mi SE 8.1 mph - N/A Snow Light Snow
1:32 AM 6.6 °F -6.1 °F 1.2 °F 79% 30.06 in 10.0 mi SE 8.1 mph - N/A   Overcast
1:53 AM 6.6 °F -5.0 °F 1.4 °F 79% 30.06 in 10.0 mi SE 6.9 mph - N/A   Overcast
2:12 AM 6.8 °F -5.9 °F 1.6 °F 79% 30.05 in 10.0 mi SE 8.1 mph - N/A   Overcast
2:32 AM 6.8 °F -5.9 °F 1.9 °F 80% 30.05 in 10.0 mi ESE 8.1 mph - N/A   Overcast
2:52 AM 6.8 °F -5.9 °F 1.9 °F 80% 30.05 in 10.0 mi SE 8.1 mph - N/A   Overcast
3:12 AM 6.8 °F -4.8 °F 1.9 °F 80% 30.04 in 10.0 mi ESE 6.9 mph - N/A Snow Light Snow
3:32 AM 7.2 °F -5.4 °F 2.3 °F 80% 30.03 in 10.0 mi ESE 8.1 mph - N/A   Overcast
3:52 AM 7.2 °F -4.3 °F 2.3 °F 80% 30.04 in 10.0 mi ESE 6.9 mph - N/A   Overcast
4:12 AM 6.8 °F -6.9 °F 2.3 °F 82% 30.01 in 10.0 mi ESE 9.2 mph - N/A   Overcast
4:32 AM 7.2 °F -4.3 °F 2.5 °F 81% 30.00 in 10.0 mi ESE 6.9 mph - N/A   Overcast
4:52 AM 7.5 °F -6.0 °F 3.0 °F 82% 30.01 in 10.0 mi ESE 9.2 mph - N/A   Overcast
5:12 AM 7.7 °F -4.8 °F 3.2 °F 82% 30.00 in 10.0 mi SE 8.1 mph - N/A   Overcast
5:32 AM 7.7 °F -3.7 °F 3.2 °F 82% 30.00 in 10.0 mi ESE 6.9 mph - N/A   Overcast
5:53 AM 7.7 °F -6.6 °F 3.2 °F 82% 29.99 in 10.0 mi ESE 10.4 mph - N/A   Overcast
6:12 AM 7.7 °F -4.8 °F 3.2 °F 82% 29.98 in 10.0 mi ESE 8.1 mph - N/A Snow Light Snow
6:32 AM 7.7 °F -3.7 °F 3.2 °F 82% 29.97 in 10.0 mi ESE 6.9 mph - N/A   Overcast
6:52 AM 8.1 °F -0.5 °F 3.7 °F 83% 29.97 in 10.0 mi ESE 4.6 mph - N/A   Overcast
7:12 AM 8.2 °F -1.8 °F 3.9 °F 83% 29.96 in 10.0 mi ESE 5.8 mph - N/A Snow Light Snow
7:32 AM 8.2 °F -0.3 °F 4.1 °F 83% 29.96 in 7.0 mi ESE 4.6 mph - N/A Snow Light Snow
7:52 AM 8.6 °F -2.6 °F 4.3 °F 83% 29.95 in 7.0 mi East 6.9 mph - N/A Snow Light Snow
8:12 AM 8.6 °F -1.3 °F 4.5 °F 83% 29.95 in 7.0 mi ESE 5.8 mph - N/A Snow Light Snow
8:32 AM 9.0 °F -2.2 °F 4.8 °F 83% 29.95 in 7.0 mi SE 6.9 mph - N/A Snow Light Snow
8:52 AM 9.1 °F -0.7 °F 5.0 °F 83% 29.95 in 3.0 mi SE 5.8 mph - N/A Snow Light Snow
9:12 AM 9.5 °F -2.6 °F 5.4 °F 83% 29.94 in 2.5 mi ESE 8.1 mph - N/A Snow Light Snow
9:32 AM 9.5 °F -2.6 °F 5.5 °F 84% 29.93 in 3.0 mi ESE 8.1 mph - N/A Snow Light Snow
9:52 AM 9.5 °F -2.6 °F 5.5 °F 84% 29.92 in 1.2 mi East 8.1 mph - N/A Snow Light Snow
10:12 AM 10.0 °F -0.9 °F 5.9 °F 83% 29.91 in 2.5 mi ESE 6.9 mph - N/A Snow Light Snow
10:32 AM 10.4 °F -2.4 °F 5.9 °F 82% 29.90 in 1.8 mi ESE 9.2 mph - N/A Snow Light Snow
10:52 AM 10.4 °F -0.4 °F 6.3 °F 83% 29.90 in 1.8 mi ESE 6.9 mph - N/A Snow Light Snow
11:12 AM 10.9 °F -1.8 °F 6.1 °F 81% 29.90 in 4.0 mi ESE 9.2 mph - N/A Snow Light Snow
11:32 AM 11.1 °F 0.4 °F 5.9 °F 80% 29.89 in 5.0 mi SSE 6.9 mph - N/A Snow Light Snow
11:53 AM 11.3 °F 0.7 °F 6.1 °F 80% 29.87 in 5.0 mi East 6.9 mph - N/A Snow Light Snow
12:12 PM 11.7 °F 1.1 °F 6.3 °F 79% 29.87 in 7.0 mi ESE 6.9 mph - N/A Snow Light Snow
12:32 PM 11.7 °F 0.0 °F 6.6 °F 80% 29.85 in 4.0 mi ESE 8.1 mph - N/A Snow Light Snow
12:53 PM 12.0 °F 2.7 °F 6.6 °F 79% 29.86 in 5.0 mi East 5.8 mph - N/A Snow Light Snow
1:12 PM 12.6 °F 2.2 °F 7.3 °F 80% 29.84 in 5.0 mi East 6.9 mph - N/A Snow Light Snow
1:32 PM 12.7 °F 1.4 °F 7.3 °F 79% 29.84 in 5.0 mi East 8.1 mph - N/A Snow Light Snow
1:53 PM 12.9 °F 0.7 °F 7.2 °F 78% 29.81 in 10.0 mi East 9.2 mph - N/A   Overcast
2:12 PM 12.9 °F 2.6 °F 7.5 °F 79% 29.81 in 10.0 mi East 6.9 mph - N/A Snow Light Snow
2:32 PM 13.1 °F 1.8 °F 7.3 °F 78% 29.80 in 10.0 mi East 8.1 mph - N/A   Overcast
2:52 PM 13.5 °F 2.2 °F 7.5 °F 77% 29.81 in 10.0 mi ESE 8.1 mph - N/A   Overcast
3:12 PM 13.6 °F 2.5 °F 7.9 °F 78% 29.79 in 10.0 mi East 8.1 mph - N/A   Overcast
3:32 PM 14.0 °F 1.2 °F 8.1 °F 77% 29.79 in 10.0 mi ESE 10.4 mph - N/A   Overcast
3:52 PM 14.0 °F 2.0 °F 8.4 °F 78% 29.79 in 10.0 mi ESE 9.2 mph - N/A   Overcast
4:12 PM 14.0 °F 2.9 °F 8.4 °F 78% 29.79 in 10.0 mi East 8.1 mph - N/A   Overcast
4:32 PM 14.0 °F 1.2 °F 8.6 °F 79% 29.78 in 10.0 mi ESE 10.4 mph - N/A   Overcast
4:52 PM 14.0 °F 1.2 °F 8.6 °F 79% 29.77 in 10.0 mi ESE 10.4 mph - N/A   Overcast
5:12 PM 14.5 °F 1.9 °F 9.0 °F 79% 29.77 in 10.0 mi SE 10.4 mph - N/A   Overcast
5:32 PM 14.5 °F 1.1 °F 8.6 °F 77% 29.77 in 7.0 mi SE 11.5 mph - N/A Snow Light Snow
5:52 PM 14.7 °F 0.7 °F 8.6 °F 77% 29.76 in 10.0 mi ESE 12.7 mph - N/A   Overcast
6:12 PM 14.7 °F 2.9 °F 8.6 °F 77% 29.75 in 10.0 mi ESE 9.2 mph - N/A   Overcast
6:32 PM 14.9 °F -0.8 °F 9.3 °F 79% 29.74 in 10.0 mi SE 16.1 mph - N/A   Overcast
6:52 PM 14.9 °F -0.8 °F 9.1 °F 78% 29.73 in 10.0 mi SE 16.1 mph - N/A   Overcast
7:12 PM 14.9 °F 0.3 °F 9.5 °F 79% 29.71 in 10.0 mi SE 13.8 mph 18.4 mph N/A   Overcast
7:32 PM 14.9 °F 2.3 °F 9.9 °F 80% 29.71 in 10.0 mi SE 10.4 mph - N/A   Overcast
7:52 PM 14.9 °F 0.3 °F 10.0 °F 81% 29.71 in 10.0 mi SE 13.8 mph - N/A   Overcast
8:12 PM 14.9 °F 0.3 °F 10.4 °F 82% 29.68 in 10.0 mi SE 13.8 mph - N/A   Overcast
8:32 PM 14.9 °F 1.6 °F 10.4 °F 82% 29.68 in 10.0 mi SE 11.5 mph - N/A   Overcast
8:52 PM 15.3 °F 1.4 °F 10.8 °F 82% 29.66 in 10.0 mi SE 12.7 mph - N/A   Overcast
9:12 PM 15.4 °F 2.3 °F 10.8 °F 82% 29.65 in 10.0 mi SE 11.5 mph - N/A   Mostly Cloudy
9:32 PM 15.6 °F 1.2 °F 10.8 °F 81% 29.63 in 10.0 mi SE 13.8 mph - N/A   Mostly Cloudy
9:52 PM 15.8 °F 2.1 °F 10.8 °F 80% 29.63 in 10.0 mi SSE 12.7 mph - N/A   Mostly Cloudy
10:12 PM 15.6 °F 3.2 °F 10.9 °F 82% 29.62 in 10.0 mi SE 10.4 mph 16.1 mph N/A   Overcast
10:32 PM 16.2 °F 3.2 °F 11.7 °F 82% 29.61 in 10.0 mi SSE 11.5 mph - N/A Snow Light Snow
10:52 PM 16.2 °F 3.9 °F 12.2 °F 84% 29.61 in 7.0 mi SSE 10.4 mph - N/A Snow Light Snow
11:12 PM 16.3 °F 3.4 °F 13.1 °F 87% 29.60 in 3.0 mi SSE 11.5 mph - N/A Snow Light Snow
11:32 PM 16.5 °F 3.0 °F 12.9 °F 86% 29.57 in 10.0 mi SSE 12.7 mph - N/A   Overcast
11:52 PM 16.7 °F 5.3 °F 12.9 °F 85% 29.58 in 10.0 mi South 9.2 mph - N/A   Overcast